• In Moldova, Republic
  • List of Countries
  • For 7 days
  • Water Temperature
  • Satellite Maps
  • Weather Map
  • Weather Widgets
  • user-avatar
    Login

    Hourly Weather Ischgl

    Today, 28 May, Sunday

    Time Temperature Precipitation Wind Pressure Humidity
    00:00 +2°C° 0 mm 1 mps 576 mmHg 93%
    01:00 0°C° 0 mm 1 mps 575 mmHg 91%
    02:00 0°C° 0 mm 1 mps 575 mmHg 91%
    03:00 0°C° 0 mm 1 mps 575 mmHg 91%
    04:00 0°C° 0 mm 1 mps 575 mmHg 90%
    05:00 +3°C° 0 mm 1 mps 577 mmHg 86%
    06:00 +6°C° 0 mm 1 mps 579 mmHg 81%
    07:00 +9°C° 0 mm 1 mps 580 mmHg 76%
    08:00 +11°C° 0 mm 1 mps 581 mmHg 67%
    09:00 +13°C° 0 mm 1 mps 582 mmHg 58%
    10:00 +14°C° 0 mm 0 mps 583 mmHg 49%
    11:00 +15°C° 0 mm 1 mps 583 mmHg 46%
    12:00 +16°C° 0 mm 1 mps 583 mmHg 44%
    13:00 +18°C° 0 mm 1 mps 583 mmHg 42%
    14:00 +16°C° 0 mm 1 mps 583 mmHg 44%
    15:00 +16°C° 0 mm 1 mps 583 mmHg 46%
    16:00 +16°C° 0 mm 2 mps 582 mmHg 48%
    17:00 +14°C° 0.1 mm 1 mps 581 mmHg 59%
    18:00 +12°C° 0.1 mm 1 mps 581 mmHg 69%
    19:00 +11°C° 0.1 mm 1 mps 580 mmHg 79%
    20:00 +8°C° 0.1 mm 1 mps 578 mmHg 84%
    21:00 +4°C° 0.1 mm 0 mps 577 mmHg 89%
    22:00 +1°C° 0.1 mm 0 mps 576 mmHg 94%
    23:00 +1°C° 0 mm 0 mps 576 mmHg 93%

    Tomorrow, 29 May, Monday

    Time Temperature Precipitation Wind Pressure Humidity
    00:00 +3°C° 0 mm 1 mps 576 mmHg 92%
    01:00 +3°C° 0 mm 1 mps 576 mmHg 91%
    02:00 +3°C° 0 mm 1 mps 576 mmHg 91%
    03:00 +3°C° 0 mm 1 mps 575 mmHg 90%
    04:00 +2°C° 0 mm 1 mps 575 mmHg 90%
    05:00 +5°C° 0 mm 1 mps 576 mmHg 85%
    06:00 +7°C° 0 mm 1 mps 578 mmHg 80%
    07:00 +10°C° 0 mm 1 mps 579 mmHg 74%
    08:00 +12°C° 0 mm 1 mps 580 mmHg 66%
    09:00 +14°C° 0 mm 1 mps 581 mmHg 57%
    10:00 +16°C° 0 mm 1 mps 581 mmHg 48%
    11:00 +18°C° 0 mm 1 mps 581 mmHg 47%
    12:00 +18°C° 0 mm 1 mps 581 mmHg 45%
    13:00 +19°C° 0 mm 1 mps 581 mmHg 44%
    14:00 +18°C° 0.3 mm 1 mps 581 mmHg 50%
    15:00 +16°C° 0.3 mm 1 mps 580 mmHg 55%
    16:00 +15°C° 0.3 mm 2 mps 580 mmHg 61%
    17:00 +14°C° 0.5 mm 1 mps 579 mmHg 69%
    18:00 +13°C° 0.5 mm 1 mps 578 mmHg 78%
    19:00 +11°C° 0.5 mm 1 mps 578 mmHg 86%
    20:00 +10°C° 0.8 mm 1 mps 577 mmHg 89%
    21:00 +8°C° 0.8 mm 1 mps 577 mmHg 92%
    22:00 +6°C° 0.8 mm 1 mps 576 mmHg 95%
    23:00 +6°C° 0.7 mm 1 mps 576 mmHg 95%

    Day after tomorrow, 30 May, Tuesday

    Time Temperature Precipitation Wind Pressure Humidity
    00:00 +6°C° 0.7 mm 1 mps 576 mmHg 96%
    01:00 +6°C° 0.7 mm 1 mps 576 mmHg 96%
    02:00 +6°C° 0.4 mm 1 mps 576 mmHg 96%
    03:00 +6°C° 0.4 mm 1 mps 576 mmHg 96%
    04:00 +5°C° 0.4 mm 1 mps 575 mmHg 97%
    05:00 +6°C° 0.1 mm 0 mps 576 mmHg 95%
    06:00 +7°C° 0.1 mm 0 mps 577 mmHg 92%
    07:00 +8°C° 0.1 mm 0 mps 578 mmHg 90%
    08:00 +10°C° 0.3 mm 1 mps 578 mmHg 86%
    09:00 +12°C° 0.3 mm 1 mps 579 mmHg 82%
    10:00 +13°C° 0.3 mm 1 mps 579 mmHg 78%
    11:00 +13°C° 0.9 mm 1 mps 579 mmHg 78%
    12:00 +13°C° 0.9 mm 1 mps 579 mmHg 78%
    13:00 +13°C° 0.9 mm 1 mps 579 mmHg 79%
    14:00 +13°C° 1.3 mm 1 mps 579 mmHg 80%
    15:00 +13°C° 1.3 mm 1 mps 579 mmHg 80%
    16:00 +13°C° 1.3 mm 1 mps 579 mmHg 81%
    17:00 +12°C° 1.4 mm 1 mps 579 mmHg 85%
    18:00 +11°C° 1.4 mm 1 mps 578 mmHg 89%
    19:00 +10°C° 1.4 mm 1 mps 578 mmHg 93%
    20:00 +9°C° 1.2 mm 1 mps 578 mmHg 94%
    21:00 +8°C° 1.2 mm 1 mps 577 mmHg 96%
    22:00 +7°C° 1.2 mm 1 mps 577 mmHg 97%
    23:00 +6°C° 0.5 mm 1 mps 577 mmHg 97%

    31 May, Wednesday

    Time Temperature Precipitation Wind Pressure Humidity
    00:00 +6°C° 0.5 mm 1 mps 577 mmHg 98%
    01:00 +6°C° 0.5 mm 1 mps 577 mmHg 98%
    02:00 +5°C° 0.1 mm 1 mps 576 mmHg 98%
    03:00 +5°C° 0.1 mm 1 mps 576 mmHg 98%
    04:00 +5°C° 0.1 mm 1 mps 576 mmHg 98%
    05:00 +6°C° 0 mm 1 mps 577 mmHg 96%
    06:00 +6°C° 0 mm 0 mps 577 mmHg 93%
    07:00 +8°C° 0 mm 0 mps 578 mmHg 91%
    08:00 +10°C° 0 mm 1 mps 579 mmHg 83%
    09:00 +12°C° 0 mm 1 mps 580 mmHg 75%
    10:00 +13°C° 0 mm 1 mps 580 mmHg 67%
    11:00 +13°C° 0.5 mm 1 mps 580 mmHg 70%
    12:00 +13°C° 0.5 mm 1 mps 580 mmHg 73%
    13:00 +13°C° 0.5 mm 2 mps 580 mmHg 76%
    14:00 +12°C° 1.1 mm 2 mps 579 mmHg 79%
    15:00 +12°C° 1.1 mm 1 mps 579 mmHg 82%
    16:00 +11°C° 1.1 mm 1 mps 579 mmHg 85%
    17:00 +10°C° 1.1 mm 1 mps 578 mmHg 88%
    18:00 +9°C° 1.1 mm 1 mps 578 mmHg 92%
    19:00 +9°C° 1.1 mm 1 mps 578 mmHg 95%
    20:00 +8°C° 0.5 mm 1 mps 578 mmHg 96%
    21:00 +7°C° 0.5 mm 1 mps 577 mmHg 97%
    22:00 +7°C° 0.5 mm 1 mps 577 mmHg 98%
    23:00 +5°C° 0.2 mm 0 mps 577 mmHg 98%

    1 June, Thursday

    Time Temperature Precipitation Wind Pressure Humidity
    00:00 +5°C° 0.2 mm 0 mps 577 mmHg 98%
    01:00 +5°C° 0.2 mm 0 mps 577 mmHg 98%
    02:00 +5°C° 0.1 mm 0 mps 577 mmHg 98%
    03:00 +5°C° 0.1 mm 0 mps 577 mmHg 98%
    04:00 +4°C° 0.1 mm 0 mps 576 mmHg 98%
    05:00 +6°C° 0.2 mm 1 mps 577 mmHg 97%
    06:00 +6°C° 0.2 mm 1 mps 577 mmHg 96%
    07:00 +7°C° 0.2 mm 1 mps 578 mmHg 95%
    08:00 +8°C° 0.3 mm 1 mps 578 mmHg 91%
    09:00 +9°C° 0.3 mm 1 mps 579 mmHg 87%
    10:00 +10°C° 0.3 mm 1 mps 579 mmHg 83%
    11:00 +10°C° 0.8 mm 1 mps 579 mmHg 83%
    12:00 +10°C° 0.8 mm 1 mps 579 mmHg 82%
    13:00 +10°C° 0.8 mm 1 mps 579 mmHg 81%
    14:00 +10°C° 1.4 mm 1 mps 579 mmHg 82%
    15:00 +9°C° 1.4 mm 1 mps 578 mmHg 83%
    16:00 +9°C° 1.4 mm 1 mps 578 mmHg 84%
    17:00 +9°C° 1.1 mm 1 mps 578 mmHg 86%
    18:00 +8°C° 1.1 mm 1 mps 578 mmHg 89%
    19:00 +8°C° 1.1 mm 1 mps 578 mmHg 91%
    20:00 +6°C° 0.4 mm 1 mps 577 mmHg 93%
    21:00 +4°C° 0.4 mm 0 mps 577 mmHg 95%
    22:00 +2°C° 0.4 mm 0 mps 576 mmHg 97%
    23:00 +2°C° 0 mm 0 mps 576 mmHg 97%

    2 June, Friday

    Time Temperature Precipitation Wind Pressure Humidity
    00:00 +1°C° 0 mm 0 mps 575 mmHg 97%
    01:00 0°C° 0 mm 0 mps 575 mmHg 97%
    02:00 0°C° 0 mm 0 mps 575 mmHg 97%
    03:00 0°C° 0 mm 0 mps 574 mmHg 97%
    04:00 -1°C° 0 mm 0 mps 574 mmHg 97%
    05:00 +2°C° 0 mm 0 mps 576 mmHg 93%
    06:00 +4°C° 0 mm 0 mps 577 mmHg 89%
    07:00 +7°C° 0 mm 0 mps 579 mmHg 85%
    08:00 +9°C° 0 mm 0 mps 579 mmHg 77%
    09:00 +11°C° 0 mm 0 mps 580 mmHg 69%
    10:00 +13°C° 0 mm 1 mps 581 mmHg 61%
    11:00 +14°C° 0.1 mm 1 mps 581 mmHg 59%
    12:00 +14°C° 0.1 mm 1 mps 581 mmHg 57%
    13:00 +15°C° 0.1 mm 1 mps 581 mmHg 55%
    14:00 +14°C° 0.4 mm 2 mps 581 mmHg 60%
    15:00 +14°C° 0.4 mm 2 mps 580 mmHg 65%
    16:00 +13°C° 0.4 mm 2 mps 580 mmHg 70%
    17:00 +12°C° 0.3 mm 1 mps 580 mmHg 76%
    18:00 +11°C° 0.3 mm 1 mps 579 mmHg 83%
    19:00 +10°C° 0.3 mm 1 mps 579 mmHg 89%
    20:00 +8°C° 0.1 mm 1 mps 578 mmHg 92%
    21:00 +4°C° 0.1 mm 0 mps 577 mmHg 95%
    22:00 +2°C° 0.1 mm 0 mps 576 mmHg 98%
    23:00 +2°C° 0 mm 0 mps 576 mmHg 97%
    Show more